Regional Weather Roundup
Issued by NWS

Home | Current Version | Previous Version | Text Only | Print | Product List | Glossary On
Versions: 1 2 3 4 5 6 7 8 9 10 11 12 13 14 15 16 17 18 19 20 21 22 23 24 25 26 27 28 29 30 31 32 33 34 35 36 37 38 39 40 41 42 43 44 45 46 47 48 49 50
000
ASUS43 KTOP 311759
RWRKS

WEATHER ROUNDUP FOR KANSAS
NATIONAL WEATHER SERVICE GOODLAND KS
1200 PM CST SAT JAN 31 2015

NOTE:  "FAIR" INDICATES FEW OR NO CLOUDS BELOW 12,000 FEET WITH NO
SIGNIFICANT WEATHER AND/OR OBSTRUCTIONS TO VISIBILITY.

KSZ001>006-013>018-027>032-041>047-311900-
NORTHWEST KANSAS

CITY           SKY/WX    TMP DP  RH WIND       PRES   REMARKS
GOODLAND       CLOUDY    39  34  82 N8        29.87F
6HR MIN TEMP:  34; 6HR MAX TEMP:  39;

HAYS           CLOUDY    36  28  75 S12       29.98F WCI  27
HILL CITY      LGT RAIN  36  34  92 S8        29.95F
6HR MIN TEMP:  33; 6HR MAX TEMP:  36; 6HR PCP: TRACE;

RUSSELL        RAIN      35  35 100 SE10      29.99F FOG     WCI  27
6HR MIN TEMP:  33; 6HR MAX TEMP:  35;

$$

KSZ061>065-074>080-084>089-311900-
SOUTHWEST KANSAS

CITY           SKY/WX    TMP DP  RH WIND       PRES   REMARKS
DODGE CITY     CLOUDY    37  35  92 S17       29.95F WCI  27
6HR MIN TEMP:  34; 6HR MAX TEMP:  37; 6HR PCP:  0.03;

ELKHART          N/A     38  30  73 S12         N/A  WCI  30
GARDEN CITY    CLOUDY    37  35  92 S21       29.91F WCI  26
6HR MIN TEMP:  33; 6HR MAX TEMP:  37; 6HR PCP:  0.01;

LIBERAL        CLOUDY    37  34  87 S16       29.96F WCI  28
$$

KSZ066>073-081>083-090>101-311900-
SOUTHEAST KANSAS

CITY           SKY/WX    TMP DP  RH WIND       PRES   REMARKS
CHANUTE        LGT RAIN  41  35  79 SE8       30.18F
6HR MIN TEMP:  39; 6HR MAX TEMP:  41; 6HR PCP:  0.01;

COFFEYVILLE    LGT RAIN  43  33  68 S6        30.19F
6HR MIN TEMP:  39; 6HR MAX TEMP:  43; 6HR PCP: TRACE;

HUTCHINSON     LGT RAIN  39  36  89 S15       30.06F FOG     WCI  31
6HR MIN TEMP:  34; 6HR MAX TEMP:  39; 6HR PCP:  0.15;

MEDICINE LODGE   N/A     38  37  97 S8        30.03F
NEWTON         CLOUDY    37  32  81 S15       30.10F WCI  28
PARSONS        CLOUDY    42  34  73 S5        30.19F
6HR MIN TEMP:  39; 6HR MAX TEMP:  43; 6HR PCP: TRACE;

WICHITA INTL   LGT RAIN  40  37  89 S14       30.10F FOG     WCI  32
6HR MIN TEMP:  35; 6HR MAX TEMP:  40; 6HR PCP:  0.18;

WICHITA JABRA  LGT RAIN  38  38 100 S12       30.10F WCI  30
6HR MIN TEMP:  35; 6HR MAX TEMP:  38; 6HR PCP:  0.17;

WINFIELD       LGT RAIN  40  31  70 S12       30.15F WCI  33
6HR MIN TEMP:  37; 6HR MAX TEMP:  40; 6HR PCP:  0.17;

$$

KSZ007>012-019>026-033>040-048>060-102>105-311900-
NORTHEAST KANSAS

CITY           SKY/WX    TMP DP  RH WIND       PRES   REMARKS
CONCORDIA      LGT SNOW  33  33 100 SE15      30.05F FOG     WCI  23
6HR MIN TEMP:  32; 6HR MAX TEMP:  33; 6HR PCP:  0.16;

EMPORIA        LGT RAIN  37  36  96 S14       30.14F FOG     WCI  28
6HR MIN TEMP:  35; 6HR MAX TEMP:  38; 6HR PCP:  0.12;

LAWRENCE       LGT RAIN  40  37  89 S12       30.18F FOG     WCI  33
6HR MIN TEMP:  33; 6HR MAX TEMP:  40; 6HR PCP:  0.21;

MANHATTAN      LGT RAIN  36  35  96 SE6       30.13F FOG
6HR MIN TEMP:  36; 6HR MAX TEMP:  38; 6HR PCP:  0.13;

OLATHE IND     LGT RAIN  39  36  89 S15       30.18F WCI  31
6HR MIN TEMP:  34; 6HR MAX TEMP:  40; 6HR PCP:  0.15;

OLATHE EXE     LGT RAIN  39  38  96 SE10      30.17F WCI  32
6HR MIN TEMP:  34; 6HR MAX TEMP:  39; 6HR PCP:  0.17;

SALINA         RAIN      37  34  89 S12       30.08F FOG     WCI  29
6HR MIN TEMP:  35; 6HR MAX TEMP:  37; 6HR PCP:  0.17;

TOPEKA BILLARD LGT RAIN  38  36  92 S8        30.18F FOG
6HR MIN TEMP:  35; 6HR MAX TEMP:  39; 6HR PCP:  0.18;

TOPEKA FORBES  LGT RAIN  38  35  89 S10       30.16F FOG     WCI  31
6HR MIN TEMP:  36; 6HR MAX TEMP:  40; 6HR PCP:  0.17;

$$


USA.gov is the U.S. government's official web portal to all federal, state and local government web resources and services.